Content
SEND FEEDBACK

Daily
Averages
Monthly
Summary
United States of America

HAZELWOOD, MISSOURI


Home > North America > United States > Missouri
Elevation: 570 feet     Latitude: 38 45N     Longitude: 090 22W

WEATHER
 
SELECT A DAY
Number of Records: 199,751;   Date Range: 1/1/95 - 10/24/14
 
SHARE

PRINT THIS DATA

[ ← Previous Day ]
WEATHER ALMANAC - APRIL 7, 2013
[ Next Day → ]
[ °C ]   °F
Weather ElementAverageHighLow
Temperature66.6 °F78.1 °F (1:54 pm)52 °F (6:54 am)
Dewpoint48.6 °F57 °F (9:54 pm)43 °F (1:54 am)
Humidity54.9 %78 % (9:54 pm)32 % (1:54 pm)
Barometer29.84 in29.91 in (8:54 am)29.72 in (11:54 pm)
Wind Speed6 mph17.3 mph (6:54 pm)
Wind Gust25.3 mph (6:54 pm)
Weather ElementAverage
Visibility9.8 mi
Wind DirectionESE (113.2 °)

Weather ElementTotal
Precipitation0.04 in
Growing Degree Days15.1 (Base 50)
Averaged from 25 records on April 7, 2013
WEATHER CONDITIONS BREAKOUT
WIND DIRECTION BREAKOUT
WEATHER BY HOUR - APRIL 7, 2013
[ °C ]   °F
Local TimeTemperatureDewpointHumidityBarometerVisibilityWind DirectionWind SpeedGust SpeedPrecipitationEventsConditions
1:54 AM64.9 °F43.0 °F45 %29.81 in10.0 miSW (230°)6.9 mphOvercast
2:54 AM62.1 °F44.1 °F52 %29.81 in10.0 miSW (230°)4.6 mphOvercast
3:54 AM61.0 °F45.0 °F56 %29.82 in10.0 miWSW (240°)5.8 mphMostly Cloudy
4:54 AM55.9 °F44.1 °F64 %29.84 in10.0 miWest (260°)6.9 mphMostly Cloudy
5:54 AM55.0 °F44.1 °F67 %29.86 in10.0 miWSW (240°)4.6 mphPartly Cloudy
6:54 AM52.0 °F43.0 °F71 %29.88 in10.0 miCalmScattered Clouds
7:54 AM53.1 °F46.0 °F77 %29.89 in10.0 miCalmScattered Clouds
8:54 AM61.0 °F48.0 °F62 %29.91 in10.0 miCalmClear
9:54 AM66.9 °F46.9 °F49 %29.90 in10.0 miCalmClear
10:54 AM71.1 °F48.0 °F44 %29.91 in10.0 miVariable3.5 mphClear
11:54 AM73.9 °F46.0 °F37 %29.89 in10.0 miSSE (160°)5.8 mphClear
12:54 PM77.0 °F46.0 °F33 %29.88 in10.0 miVariable3.5 mphScattered Clouds
1:54 PM78.1 °F46.0 °F32 %29.86 in10.0 miVariable6.9 mphMostly Cloudy
2:54 PM77.0 °F46.0 °F33 %29.84 in10.0 miESE (120°)4.6 mphMostly Cloudy
3:54 PM75.9 °F44.1 °F32 %29.82 in10.0 miCalmOvercast
4:54 PM75.9 °F46.9 °F36 %29.82 in10.0 miSE (140°)9.2 mphScattered Clouds
5:54 PM75.0 °F48.9 °F40 %29.80 in10.0 miESE (110°)9.2 mphScattered Clouds
6:34 PM73.4 °F51.8 °F47 %29.82 in10.0 miSE (130°)8.1 mphThunderstormOvercast
6:54 PM70.0 °F53.1 °F55 %29.82 in7.0 miSouth (170°)17.3 mph25.3 mph0.00 inRain-ThunderstormLight Thunderstorms and Rain
7:04 PM66.2 °F53.6 °F64 %29.82 in7.0 miSE (140°)10.4 mph0.01 inRainLight Rain
7:54 PM64.0 °F55.9 °F75 %29.81 in10.0 miESE (110°)8.1 mph0.01 inOvercast
8:54 PM63.0 °F55.0 °F75 %29.81 in10.0 miEast (100°)6.9 mphOvercast
9:54 PM64.0 °F57.0 °F78 %29.82 in10.0 miESE (110°)4.6 mphOvercast
10:54 PM64.9 °F55.9 °F73 %29.81 in10.0 miSouth (170°)8.1 mphPartly Cloudy
11:54 PM64.9 °F57.0 °F75 %29.72 in10.0 miSouth (170°)13.8 mph23.0 mph0.02 inRainLight Rain
Hourly data recorded from KSUS, located miles away from Hazelwood, Missouri







STORIES FROM OUR PARTNERS